Regional Weather Roundup
Issued by NWS

Home | Current Version | Previous Version | Text Only | Print | Product List | Glossary On
Versions: 1 2 3 4 5 6 7 8 9 10 11 12 13 14 15 16 17 18 19 20 21 22 23 24 25 26 27 28 29 30 31 32 33 34 35 36 37 38 39 40 41 42 43 44 45 46 47 48 49 50
000
ASUS43 KLSX 272110
RWRMO

WEATHER SUMMARY FOR MISSOURI
NATIONAL WEATHER SERVICE SPRINGFIELD MO
400 PM CDT TUE JUN 27 2017

NOTE: "FAIR" INDICATES FEW OR NO CLOUDS BELOW 12,000 FEET WITH NO
       SIGNIFICANT WEATHER AND/OR OBSTRUCTIONS TO VISIBILITY.
       CURRENT SKY AND/OR WEATHER CONDITIONS ARE NOT AVAILABLE FOR
       CHILLICOTHE AND FARMINGTON.

MOZ001>031-035>038-043-044-053-054-272200-
...NORTHERN AND WESTERN MISSOURI...

CITY           SKY/WX    TMP DP  RH WIND       PRES   REMARKS
KANSAS CTY INT PTSUNNY   78  64  61 SE12      29.98F
KANSAS C DTWN  MOSUNNY   83  65  54 S13G20    29.97F
LEE`S SUMMIT   PTSUNNY   80  65  59 SE13G18   30.00F
ST JOSEPH      PTSUNNY   80  65  59 SE15G21   29.97F
CHILLICOTHE      N/A     80  61  52 S12G17    30.01F
KIRKSVILLE     SUNNY     78  54  43 SE13      30.04F

$$
MOZ066>068-077>081-088>096-101>105-272200-
...SOUTHWEST MISSOURI...

CITY           SKY/WX    TMP DP  RH WIND       PRES   REMARKS
SPRINGFIELD    MOSUNNY   81  65  58 S12       30.04F
JOPLIN         PTSUNNY   85  69  58 SE8       30.01F
BRANSON        PTSUNNY   82  63  51 SE8       30.07F

$$
MOZ032>034-039>042-045>050-055>058-069>072-272200-
...CENTRAL MISSOURI...

CITY           SKY/WX    TMP DP  RH WIND       PRES   REMARKS
COLUMBIA       SUNNY     79  59  50 SE6       30.05F
JEFFERSON CITY SUNNY     80  58  46 MISG      30.04F
ROLLA          MOSUNNY   80  59  48 SE8       30.06F
SEDALIA        MOSUNNY   81  66  60 SE10      30.04F
WARRENSBURG    MOSUNNY   79  63  57 SE10      30.00F
OSAGE BEACH    PTSUNNY   80  64  58 S6        30.06F

$$
MOZ051-052-059>065-272200-
...EAST CENTRAL MISSOURI...

CITY           SKY/WX    TMP DP  RH WIND       PRES   REMARKS
ST LOUIS INTL  MOSUNNY   81  50  33 S9G22     30.07F
SPIRIT OF STL  SUNNY     81  50  33 S7        30.05F
ST CHARLES     SUNNY     80  50  34 E5        30.06F

$$
MOZ072>076-082>087-097>100-106>115-272200-
...SOUTH CENTRAL AND SOUTHEAST MISSOURI...

CITY           SKY/WX    TMP DP  RH WIND       PRES   REMARKS
CAPE GIRARDEAU SUNNY     79  57  46 S8        30.08F
FARMINGTON     SUNNY     79  56  45 E6        30.09F
POPLAR BLUFF   SUNNY     81  60  48 CALM      30.07F
WEST PLAINS    MOSUNNY   78  61  55 SE6       30.09F

$$



USA.gov is the U.S. government's official web portal to all federal, state and local government web resources and services.